Regional Weather Roundup
Issued by NWS

Home | Current Version | Previous Version | Text Only | Print | Product List | Glossary Off
Versions: 1 2 3 4 5 6 7 8 9 10 11 12 13 14 15 16 17 18 19 20 21 22 23 24 25 26 27 28 29 30 31 32 33 34 35 36 37 38 39 40 41 42 43 44 45 46 47 48 49 50

000
ASUS44 KMEG 141310
RWRTN
TENNESSEE HOURLY STATE WEATHER ROUNDUP
NATIONAL WEATHER SERVICE MEMPHIS TN
700 AM CST THU DEC 14 2017

TNZ002-004-019-021-049-052-054-088>092-141400-
WEST TENNESSEE

CITY           SKY/WX    TMP DP  RH WIND       PRES   REMARKS
MEMPHIS INTL   PTCLDY    39  29  67 NE5       29.96R
NWS MEMPHIS      N/A     36 N/A N/A MISG        N/A
JACKSON        CLOUDY    35  29  78 N7        29.97R WCI  29
DYERSBURG      CLOUDY    36  28  73 NE8       29.98R WCI  30
SOMERVILLE     CLEAR     37  30  75 CALM      29.95R
COVINGTON      PTCLDY    34  28  80 NE7       29.98R WCI  28
UNION CITY     CLEAR     34  27  75 N5        29.97R WCI  30
BOLIVAR        CLEAR     36  28  75 N5        29.95R WCI  32
PARIS          CLEAR     30  25  80 N3        29.95R
HUNTINGDON     PTCLDY    34  28  80 CALM      29.96R
LEXINGTON      CLEAR     34  28  80 N6        29.94R WCI  29
SELMER         CLEAR     36  28  75 N5        29.94R WCI  32
SAVANNAH       CLEAR     32  28  86 CALM      29.94R
$$

TNZ008-025-027-028-033-062-065-066-141400-
NORTH MIDDLE TENNESSEE

CITY           SKY/WX    TMP DP  RH WIND       PRES   REMARKS
NASHVILLE      PTCLDY    37  27  67 NW5       29.96R WCI  33
PORTLAND       CLOUDY    34  28  80 NW5       29.93R WCI  30
CLARKSVILLE    CLOUDY    36  23  59 NW8       29.96R WCI  30
SMYRNA         CLEAR     30  27  88 CALM      29.96R
COOKEVILLE     PTCLDY    23  21  93 CALM      29.91R
GALLATIN       CLOUDY    34  28  80 CALM      29.97R
CROSSVILLE     MOCLDY    32  26  78 NW3       29.88R
$$

TNZ061-075-076-078-094-096-097-141400-
SOUTH MIDDLE TENNESSEE

CITY           SKY/WX    TMP DP  RH WIND       PRES   REMARKS
FAYETTEVILLE   CLEAR     34  27  75 N7        29.91R WCI  28
TULLAHOMA      CLEAR     32  27  80 N6G12     29.90R WCI  26
WINCHESTER     CLEAR     25  21  86 CALM      29.92R
MCMINNVILLE    CLEAR     32  27  80 N3        29.91R
COLUMBIA       CLEAR     28  27  93 CALM      29.92R
SHELBYVILLE    CLEAR     32  28  86 N5        29.93R WCI  27
$$

TNZ017-018-042-046-047-141400-
NORTHEAST TENNESSEE

CITY           SKY/WX    TMP DP  RH WIND       PRES   REMARKS
TRI CITIES     PTCLDY    33  24  69 SW8       29.83R WCI  26
ELIZABETHTON   CLEAR     36  23  60 W5        29.83R WCI  32
$$

TNZ012-013-036-069-073-074-141400-
CENTRAL EAST TENNESSEE

CITY           SKY/WX    TMP DP  RH WIND       PRES   REMARKS
KNOXVILLE      PTCLDY    32  26  78 SW9       29.87R WCI  24
OAK RIDGE      CLEAR     28  23  81 CALM      29.89R
DOWNTOWN KNOXV CLEAR     34  28  80 CALM      29.89R
GATLINBURG     CLEAR     39  25  56 CALM      29.87R
MORRISTOWN     CLEAR     36  23  60 W6        29.85R WCI  31
JACKSBORO      MOCLDY    37  28  70 CALM      29.91R
$$

TNZ083-085-099-141400-
SOUTHEAST TENNESSEE

CITY           SKY/WX    TMP DP  RH WIND       PRES   REMARKS
CHATTANOOGA    PTCLDY    28  24  85 CALM      29.91R
DAYTON         MOSUNNY   23  23 100 CALM      29.89R
$$

SKY/WX REPORTED AS FAIR MEANS FEW OR NO CLOUDS BELOW
12 THOUSAND FEET.





USA.gov is the U.S. government's official web portal to all federal, state and local government web resources and services.